Home > Weather > Johor Bahru > Past weeks

Flag for Malaysia Past Weather in Johor Bahru, Malaysia — Yesterday and Last 2 Weeks

Now
90 °F

Partly sunny.


Feels Like: 98 °F
Forecast: 80 / 91 °F
Wind: 7 mph from South

Location: Singapore / Paya Lebar

Current Time: Aug 28, 2016 at 1:09:52 PM

Latest Report: Aug 28, 2016 at 12:00 PM


Visibility: 5 mi

Pressure: 29.86 "Hg

Humidity: 59%

Dew Point: 73 °F

Location of Johor BahruLocation

Past Weather in Johor Bahru — Graph

°F

Johor Bahru Temperature Yesterday

Maximum temperature yesterday: 93 °F (at 2:00 PM)
Minimum temperature yesterday: 82 °F (at 7:00 AM)
Average temperature yesterday: 87 °F

High & Low Weather Summary for the Past Weeks

 TemperatureHumidityPressure
High93 °F (Aug 27, 2:00 PM)94% (Aug 19, 6:00 AM)29.89 "Hg (Aug 19, 6:00 AM)
Low73 °F (Aug 19, 6:00 AM)41% (Aug 27, 2:00 PM)29.65 "Hg (Aug 23, 4:00 PM)
Average86 °F72%29.77 "Hg
* Reported Aug 13 12:00 PM — Aug 28 12:00 PM, Johor Bahru, Weather by CustomWeather, © 2016

Note: Actual official high and low records may vary slightly from our data, if they occured in-between our weather recording intervals... More about our weather records

Advertising

Johor Bahru Weather History for the Previous 24 Hours

Scroll right to see more
 ConditionsComfort  
Time TempWeatherWind HumidityBarometerVisibility
12:00 PM
Sun, Aug 28
90 °FPartly sunny.7 mph59%29.86 "Hg5 mi
11:00 AM88 °FPartly sunny.5 mph66%29.86 "Hg5 mi
10:00 AM86 °FPartly sunny.3 mph75%29.89 "Hg5 mi
9:00 AM86 °FBroken clouds.No wind75%29.86 "Hg6 mi
8:00 AM82 °FPartly sunny.No wind79%29.86 "Hg5 mi
7:00 AM82 °FPassing clouds.No wind84%29.83 "Hg5 mi
6:00 AM82 °FPassing clouds.No wind79%29.83 "HgN/A
5:00 AM82 °FPassing clouds.No wind84%29.80 "HgN/A
11:00 PM
Sat, Aug 27
84 °FPassing clouds.7 mph74%29.86 "Hg6 mi
10:00 PM84 °FPassing clouds.7 mph84%29.83 "Hg6 mi
9:00 PM88 °FPassing clouds.2 mph59%29.80 "Hg6 mi
8:00 PM88 °FPassing clouds.2 mph59%29.80 "HgN/A
7:00 PM88 °FPartly sunny.5 mph62%29.77 "Hg6 mi
6:00 PM88 °FPartly sunny.5 mph70%29.77 "Hg6 mi
5:00 PM90 °FPartly sunny.7 mph67%29.74 "HgN/A
4:00 PM91 °FPartly sunny.5 mph63%29.74 "HgN/A
3:00 PM93 °FBroken clouds.8 mph44%29.77 "Hg5 mi
2:00 PM93 °FPartly sunny.12 mph41%29.80 "Hg4 mi
1:00 PM91 °FPartly sunny.8 mph52%29.83 "Hg3 mi
Weather by CustomWeather, © 2016

See weather overviewHow to use our weather pages